﻿測定場所 (Monitoring sites),日付 (Measurement date),時間 (Measurement time),線量率 最大値 (max) μGy/h,線量率 最小値 (min) μGy/h,線量率 平均値 (average) μGy/h,
大田 (Ota),2024-04-07,23:01～24:00,0.0336,0.0293,0.0315,
大田 (Ota),2024-04-07,22:01～23:00,0.0342,0.0298,0.0314,
大田 (Ota),2024-04-07,21:01～22:00,0.0346,0.0294,0.0315,
大田 (Ota),2024-04-07,20:01～21:00,0.0336,0.0283,0.0315,
大田 (Ota),2024-04-07,19:01～20:00,0.0335,0.0298,0.0314,
大田 (Ota),2024-04-07,18:01～19:00,0.0334,0.0294,0.0312,
大田 (Ota),2024-04-07,17:01～18:00,0.0346,0.0294,0.0317,
大田 (Ota),2024-04-07,16:01～17:00,0.0335,0.0299,0.0317,
大田 (Ota),2024-04-07,15:01～16:00,0.0350,0.0293,0.0320,
大田 (Ota),2024-04-07,14:01～15:00,0.0341,0.0301,0.0320,
大田 (Ota),2024-04-07,13:01～14:00,0.0339,0.0289,0.0319,
大田 (Ota),2024-04-07,12:01～13:00,0.0346,0.0299,0.0320,
大田 (Ota),2024-04-07,11:01～12:00,0.0342,0.0301,0.0322,
大田 (Ota),2024-04-07,10:01～11:00,0.0336,0.0301,0.0320,
大田 (Ota),2024-04-07,09:01～10:00,0.0349,0.0290,0.0323,
大田 (Ota),2024-04-07,08:01～09:00,0.0351,0.0298,0.0329,
大田 (Ota),2024-04-07,07:01～08:00,0.0396,0.0325,0.0356,
大田 (Ota),2024-04-07,06:01～07:00,0.0427,0.0372,0.0401,
大田 (Ota),2024-04-07,05:01～06:00,0.0438,0.0388,0.0411,
大田 (Ota),2024-04-07,04:01～05:00,0.0463,0.0389,0.0421,
大田 (Ota),2024-04-07,03:01～04:00,0.0442,0.0402,0.0420,
大田 (Ota),2024-04-07,02:01～03:00,0.0449,0.0363,0.0407,
大田 (Ota),2024-04-07,01:01～02:00,0.0384,0.0304,0.0330,
大田 (Ota),2024-04-07,00:01～01:00,0.0340,0.0300,0.0323,
大田 (Ota),2024-04-06,23:01～24:00,0.0340,0.0303,0.0322,
大田 (Ota),2024-04-06,22:01～23:00,0.0351,0.0294,0.0322,
大田 (Ota),2024-04-06,21:01～22:00,0.0341,0.0303,0.0321,
大田 (Ota),2024-04-06,20:01～21:00,0.0343,0.0303,0.0321,
大田 (Ota),2024-04-06,19:01～20:00,0.0344,0.0301,0.0319,
大田 (Ota),2024-04-06,18:01～19:00,0.0349,0.0299,0.0320,
大田 (Ota),2024-04-06,17:01～18:00,0.0341,0.0298,0.0320,
大田 (Ota),2024-04-06,16:01～17:00,0.0336,0.0294,0.0317,
大田 (Ota),2024-04-06,15:01～16:00,0.0348,0.0297,0.0318,
大田 (Ota),2024-04-06,14:01～15:00,0.0338,0.0283,0.0320,
大田 (Ota),2024-04-06,13:01～14:00,0.0340,0.0298,0.0321,
大田 (Ota),2024-04-06,12:01～13:00,0.0342,0.0294,0.0321,
大田 (Ota),2024-04-06,11:01～12:00,0.0356,0.0293,0.0319,
大田 (Ota),2024-04-06,10:01～11:00,0.0346,0.0301,0.0321,
大田 (Ota),2024-04-06,09:01～10:00,0.0343,0.0300,0.0320,
大田 (Ota),2024-04-06,08:01～09:00,0.0333,0.0294,0.0314,
大田 (Ota),2024-04-06,07:01～08:00,0.0352,0.0288,0.0320,
大田 (Ota),2024-04-06,06:01～07:00,0.0346,0.0295,0.0321,
大田 (Ota),2024-04-06,05:01～06:00,0.0345,0.0302,0.0321,
大田 (Ota),2024-04-06,04:01～05:00,0.0352,0.0299,0.0326,
大田 (Ota),2024-04-06,03:01～04:00,0.0349,0.0301,0.0331,
大田 (Ota),2024-04-06,02:01～03:00,0.0364,0.0311,0.0336,
大田 (Ota),2024-04-06,01:01～02:00,0.0363,0.0313,0.0336,
大田 (Ota),2024-04-06,00:01～01:00,0.0351,0.0302,0.0327,
大田 (Ota),2024-04-05,23:01～24:00,0.0339,0.0294,0.0321,
大田 (Ota),2024-04-05,22:01～23:00,0.0342,0.0304,0.0325,
大田 (Ota),2024-04-05,21:01～22:00,0.0346,0.0304,0.0323,
大田 (Ota),2024-04-05,20:01～21:00,0.0343,0.0296,0.0321,
大田 (Ota),2024-04-05,19:01～20:00,0.0337,0.0302,0.0317,
大田 (Ota),2024-04-05,18:01～19:00,0.0339,0.0301,0.0318,
大田 (Ota),2024-04-05,17:01～18:00,0.0345,0.0301,0.0322,
大田 (Ota),2024-04-05,16:01～17:00,0.0341,0.0298,0.0319,
大田 (Ota),2024-04-05,15:01～16:00,0.0343,0.0293,0.0316,
大田 (Ota),2024-04-05,14:01～15:00,0.0337,0.0286,0.0317,
大田 (Ota),2024-04-05,13:01～14:00,0.0338,0.0297,0.0317,
大田 (Ota),2024-04-05,12:01～13:00,0.0340,0.0300,0.0319,
大田 (Ota),2024-04-05,11:01～12:00,0.0345,0.0301,0.0319,
大田 (Ota),2024-04-05,10:01～11:00,0.0344,0.0304,0.0325,
大田 (Ota),2024-04-05,09:01～10:00,0.0368,0.0314,0.0335,
大田 (Ota),2024-04-05,08:01～09:00,0.0353,0.0303,0.0325,
大田 (Ota),2024-04-05,07:01～08:00,0.0367,0.0311,0.0342,
大田 (Ota),2024-04-05,06:01～07:00,0.0441,0.0349,0.0391,
大田 (Ota),2024-04-05,05:01～06:00,0.0424,0.0366,0.0399,
大田 (Ota),2024-04-05,04:01～05:00,0.0400,0.0315,0.0356,
大田 (Ota),2024-04-05,03:01～04:00,0.0345,0.0300,0.0324,
大田 (Ota),2024-04-05,02:01～03:00,0.0353,0.0298,0.0323,
大田 (Ota),2024-04-05,01:01～02:00,0.0352,0.0298,0.0323,
大田 (Ota),2024-04-05,00:01～01:00,0.0347,0.0296,0.0321,
大田 (Ota),2024-04-04,23:01～24:00,0.0343,0.0287,0.0320,
大田 (Ota),2024-04-04,22:01～23:00,0.0342,0.0288,0.0320,
大田 (Ota),2024-04-04,21:01～22:00,0.0343,0.0293,0.0321,
大田 (Ota),2024-04-04,20:01～21:00,0.0343,0.0293,0.0318,
大田 (Ota),2024-04-04,19:01～20:00,0.0353,0.0294,0.0316,
大田 (Ota),2024-04-04,18:01～19:00,0.0345,0.0286,0.0318,
大田 (Ota),2024-04-04,17:01～18:00,0.0339,0.0295,0.0318,
大田 (Ota),2024-04-04,16:01～17:00,0.0341,0.0294,0.0318,
大田 (Ota),2024-04-04,15:01～16:00,0.0346,0.0289,0.0316,
大田 (Ota),2024-04-04,14:01～15:00,0.0332,0.0295,0.0316,
大田 (Ota),2024-04-04,13:01～14:00,0.0339,0.0291,0.0319,
大田 (Ota),2024-04-04,12:01～13:00,0.0339,0.0286,0.0317,
大田 (Ota),2024-04-04,11:01～12:00,0.0334,0.0290,0.0317,
大田 (Ota),2024-04-04,10:01～11:00,0.0350,0.0293,0.0323,
大田 (Ota),2024-04-04,09:01～10:00,0.0351,0.0306,0.0328,
大田 (Ota),2024-04-04,08:01～09:00,0.0375,0.0319,0.0342,
大田 (Ota),2024-04-04,07:01～08:00,0.0346,0.0297,0.0323,
大田 (Ota),2024-04-04,06:01～07:00,0.0350,0.0299,0.0322,
大田 (Ota),2024-04-04,05:01～06:00,0.0367,0.0301,0.0332,
大田 (Ota),2024-04-04,04:01～05:00,0.0395,0.0325,0.0363,
大田 (Ota),2024-04-04,03:01～04:00,0.0424,0.0336,0.0384,
大田 (Ota),2024-04-04,02:01～03:00,0.0435,0.0339,0.0383,
大田 (Ota),2024-04-04,01:01～02:00,0.0495,0.0420,0.0463,
大田 (Ota),2024-04-04,00:01～01:00,0.0499,0.0409,0.0456,
大田 (Ota),2024-04-03,23:01～24:00,0.0434,0.0349,0.0383,
大田 (Ota),2024-04-03,22:01～23:00,0.0377,0.0328,0.0356,
大田 (Ota),2024-04-03,21:01～22:00,0.0381,0.0338,0.0360,
大田 (Ota),2024-04-03,20:01～21:00,0.0368,0.0315,0.0335,
大田 (Ota),2024-04-03,19:01～20:00,0.0393,0.0320,0.0352,
大田 (Ota),2024-04-03,18:01～19:00,0.0406,0.0351,0.0383,
大田 (Ota),2024-04-03,17:01～18:00,0.0418,0.0375,0.0394,
大田 (Ota),2024-04-03,16:01～17:00,0.0443,0.0348,0.0414,
大田 (Ota),2024-04-03,15:01～16:00,0.0461,0.0408,0.0432,
大田 (Ota),2024-04-03,14:01～15:00,0.0450,0.0365,0.0400,
大田 (Ota),2024-04-03,13:01～14:00,0.0468,0.0391,0.0429,
大田 (Ota),2024-04-03,12:01～13:00,0.0454,0.0397,0.0423,
大田 (Ota),2024-04-03,11:01～12:00,0.0443,0.0358,0.0403,
大田 (Ota),2024-04-03,10:01～11:00,0.0384,0.0310,0.0347,
大田 (Ota),2024-04-03,09:01～10:00,0.0360,0.0301,0.0328,
大田 (Ota),2024-04-03,08:01～09:00,0.0350,0.0303,0.0329,
大田 (Ota),2024-04-03,07:01～08:00,0.0352,0.0303,0.0326,
大田 (Ota),2024-04-03,06:01～07:00,0.0343,0.0301,0.0323,
大田 (Ota),2024-04-03,05:01～06:00,0.0343,0.0301,0.0323,
大田 (Ota),2024-04-03,04:01～05:00,0.0358,0.0302,0.0323,
大田 (Ota),2024-04-03,03:01～04:00,0.0343,0.0296,0.0322,
大田 (Ota),2024-04-03,02:01～03:00,0.0345,0.0303,0.0323,
大田 (Ota),2024-04-03,01:01～02:00,0.0347,0.0297,0.0322,
大田 (Ota),2024-04-03,00:01～01:00,0.0346,0.0291,0.0320,
大田 (Ota),2024-04-02,23:01～24:00,0.0342,0.0301,0.0320,
大田 (Ota),2024-04-02,22:01～23:00,0.0347,0.0301,0.0322,
大田 (Ota),2024-04-02,21:01～22:00,0.0348,0.0307,0.0323,
大田 (Ota),2024-04-02,20:01～21:00,0.0353,0.0301,0.0320,
大田 (Ota),2024-04-02,19:01～20:00,0.0342,0.0301,0.0318,
大田 (Ota),2024-04-02,18:01～19:00,0.0341,0.0304,0.0320,
大田 (Ota),2024-04-02,17:01～18:00,0.0342,0.0301,0.0322,
大田 (Ota),2024-04-02,16:01～17:00,0.0337,0.0293,0.0317,
大田 (Ota),2024-04-02,15:01～16:00,0.0353,0.0296,0.0317,
大田 (Ota),2024-04-02,14:01～15:00,0.0335,0.0301,0.0319,
大田 (Ota),2024-04-02,13:01～14:00,0.0353,0.0301,0.0322,
大田 (Ota),2024-04-02,12:01～13:00,0.0340,0.0297,0.0320,
大田 (Ota),2024-04-02,11:01～12:00,0.0336,0.0301,0.0320,
大田 (Ota),2024-04-02,10:01～11:00,0.0341,0.0298,0.0320,
大田 (Ota),2024-04-02,09:01～10:00,0.0348,0.0292,0.0318,
大田 (Ota),2024-04-02,08:01～09:00,0.0350,0.0295,0.0320,
大田 (Ota),2024-04-02,07:01～08:00,0.0346,0.0295,0.0318,
大田 (Ota),2024-04-02,06:01～07:00,0.0335,0.0299,0.0317,
大田 (Ota),2024-04-02,05:01～06:00,0.0336,0.0287,0.0314,
大田 (Ota),2024-04-02,04:01～05:00,0.0336,0.0295,0.0315,
大田 (Ota),2024-04-02,03:01～04:00,0.0349,0.0288,0.0317,
大田 (Ota),2024-04-02,02:01～03:00,0.0349,0.0298,0.0318,
大田 (Ota),2024-04-02,01:01～02:00,0.0341,0.0297,0.0319,
大田 (Ota),2024-04-02,00:01～01:00,0.0349,0.0301,0.0319,
大田 (Ota),2024-04-01,23:01～24:00,0.0339,0.0295,0.0320,
大田 (Ota),2024-04-01,22:01～23:00,0.0348,0.0295,0.0320,
大田 (Ota),2024-04-01,21:01～22:00,0.0344,0.0293,0.0321,
大田 (Ota),2024-04-01,20:01～21:00,0.0349,0.0295,0.0319,
大田 (Ota),2024-04-01,19:01～20:00,0.0344,0.0300,0.0323,
大田 (Ota),2024-04-01,18:01～19:00,0.0346,0.0297,0.0322,
大田 (Ota),2024-04-01,17:01～18:00,0.0346,0.0302,0.0322,
大田 (Ota),2024-04-01,16:01～17:00,0.0336,0.0293,0.0318,
大田 (Ota),2024-04-01,15:01～16:00,0.0341,0.0298,0.0319,
大田 (Ota),2024-04-01,14:01～15:00,0.0338,0.0292,0.0317,
大田 (Ota),2024-04-01,13:01～14:00,0.0338,0.0291,0.0318,
大田 (Ota),2024-04-01,12:01～13:00,0.0357,0.0299,0.0320,
大田 (Ota),2024-04-01,11:01～12:00,0.0343,0.0299,0.0318,
大田 (Ota),2024-04-01,10:01～11:00,0.0354,0.0304,0.0323,
大田 (Ota),2024-04-01,09:01～10:00,0.0376,0.0315,0.0348,
大田 (Ota),2024-04-01,08:01～09:00,0.0506,0.0370,0.0430,
大田 (Ota),2024-04-01,07:01～08:00,0.0594,0.0485,0.0547,
大田 (Ota),2024-04-01,06:01～07:00,0.0527,0.0311,0.0427,
大田 (Ota),2024-04-01,05:01～06:00,0.0353,0.0297,0.0324,
大田 (Ota),2024-04-01,04:01～05:00,0.0343,0.0294,0.0322,
大田 (Ota),2024-04-01,03:01～04:00,0.0344,0.0301,0.0324,
大田 (Ota),2024-04-01,02:01～03:00,0.0352,0.0300,0.0322,
大田 (Ota),2024-04-01,01:01～02:00,0.0343,0.0297,0.0323,
大田 (Ota),2024-04-01,00:01～01:00,0.0343,0.0295,0.0324,
